This demonstration page uses our WeatherBlox Daily Observations layout. Learn more.

Left ArrowRight Arrow

Hourly Observations for July 3, 2015

Temp ( °F °C ) Dew Point ( °F °C ) Humidity (%) Winds ( mph kmh ) Pressure ( in mb ) Visibility ( mi km ) Precip ( " mm )
12:53 am 00:53 Clear 85 29.4 44 6.7 24 24 ENE 6 9 29.86 1011 10 16 0.00 0.00
1:53 am 01:53 Clear 84 28.9 45 7.2 25 25 ENE 8 13 29.85 1011 10 16 0.00 0.00
2:53 am 02:53 Clear 83 28.3 46 7.8 27 27 N 5 7 29.83 1010 10 16 0.00 0.00
3:53 am 03:53 Clear 81 27.2 47 8.3 30 30 NW 5 7 29.81 1010 10 16 0.00 0.00
4:53 am 04:53 Clear 81 27.2 49 9.4 33 33 W 7 11 29.80 1009 10 16 0.00 0.00
5:53 am 05:53 Sunny 82 27.8 51 10.6 34 34 SSE 5 7 29.81 1010 10 16 0.00 0.00
6:53 am 06:53 Sunny 79 26.1 50 10 36 36 SE 5 7 29.84 1010 10 16 0.00 0.00
7:53 am 07:53 Mostly Cloudy 81 27.2 52 11.1 37 37 SSE 9 15 29.85 1011 10 16 0.00 0.00
8:53 am 08:53 Partly Cloudy 82 27.8 51 10.6 34 34 S 9 15 29.88 1012 10 16 0.00 0.00
9:53 am 09:53 Sunny 87 30.6 48 8.9 26 26 SSW 10 17 29.88 1012 10 16 0.00 0.00
10:53 am 10:53 Sunny 89 31.7 50 10 26 26 VRB 7 11 29.87 1012 10 16 0.00 0.00
11:53 am 11:53 Sunny 93 33.9 50 10 23 23 SSW 5 7 29.86 1011 10 16 0.00 0.00
12:53 pm 12:53 Sunny 94 34.4 51 10.6 23 23 VRB 3 6 29.84 1011 10 16 0.00 0.00
1:53 pm 13:53 Sunny 98 36.7 52 11.1 21 21 SSW 10 17 29.83 1010 10 16 0.00 0.00
2:53 pm 14:53 Sunny 99 37.2 52 11.1 21 21 S 6 9 29.80 1009 10 16 0.00 0.00
3:53 pm 15:53 Sunny 101 38.3 51 10.6 19 19 undefined N/A 29.78 1009 10 16 0.00 0.00
4:53 pm 16:53 Sunny 101 38.3 54 12.2 21 21 S 14 22 29.75 1008 10 16 0.00 0.00
5:53 pm 17:53 Sunny 101 38.3 54 12.2 21 21 SSW 10 17 29.74 1007 10 16 0.00 0.00
6:53 pm 18:53 Sunny 100 37.8 54 12.2 21 21 SSW 7 11 29.73 1007 10 16 0.00 0.00
7:53 pm 19:53 Sunny 98 36.7 54 12.2 23 23 SSW 6 9 29.73 1007 10 16 0.00 0.00
8:53 pm 20:53 Clear 93 33.9 57 13.9 30 30 SE 5 7 29.74 1007 10 16 0.00 0.00
9:53 pm 21:53 Clear 90 32.2 59 15 35 35 SSE 6 9 29.75 1008 10 16 0.00 0.00
10:53 pm 22:53 Clear 87 30.6 60 15.6 40 40 NNW 3 6 29.76 1008 10 16 0.00 0.00
11:53 pm 23:53 Clear 85 29.4 60 15.6 43 43 WNW 3 6 29.77 1008 10 16 0.00 0.00

Powered by AerisWeather